Location: Newark
(48.1500°N, 13.1167°E)
Time: 10:55:42
(UTC+00:00)

XW-2D - Pass Details

Date: 12 December 2021
Orbit: 502 x 522 km, 97.5° (Epoch: 21 January)

Event Time Altitude Azimuth Distance (km) Brightness Sun altitude
Rises 05:15:09 0° 13° (NNE) 2,669 ? -14.8°
Reaches altitude 10° 05:17:16 10° 13° (NNE) 1,774 ? -14.4°
Maximum altitude 05:21:06 88° 103° (ESE) 530 ? -13.8°
Drops below altitude 10° 05:24:54 10° 194° (SSW) 1,752 ? -13.2°
Sets 05:26:58 0° 194° (SSW) 2,632 ? -12.9°
